Location: Clyde
(45.1830°S, 169.3170°E)
Time: 07:24:20
(UTC+12:00)

ATLAS CENTAUR R/B - Pass Details

Date: 14 May 2021
Orbit: 472 x 671 km, 64.6° (Epoch: 13 June)

Event Time Altitude Azimuth Distance (km) Brightness Sun altitude
Rises 19:05:04 0° 209° (SSW) 2,889 5.3 -17.6°
Reaches altitude 10° 19:07:50 10° 194° (SSW) 1,939 4.2 -18.1°
Enters shadow 19:10:28 21° 158° (SSE) 1,328 3.0 -18.6°
